Grand Prairie, TX

4:22 AM CDT on March 23, 2017 (GMT -0500)
Grand Prairie Municipal

Weather History for KGPM - December, 2013

Change the Weather History Date:

Wednesday, December 11, 2013

  Actual Average (KRBD) Record (KRBD)
Temperature  
Mean Temperature 35 °F -  
Max Temperature 44 °F 55 °F 80 °F (1996)
Min Temperature 26 °F 37 °F 21 °F (2000)
Degree Days  
Heating Degree Days 30    
Moisture  
Dew Point 26 °F    
Average Humidity 75    
Maximum Humidity 86    
Minimum Humidity 49    
Precipitation  
Precipitation 0.00 in - - ()
Sea Level Pressure  
Sea Level Pressure 30.46 in    
Wind  
Wind Speed 2 mph (NNW)    
Max Wind Speed 9 mph    
Max Gust Speed -    
Visibility 10 miles    
Events      
Averages and records for this station are not official NWS values.
T = Trace of Precipitation, MM = Missing Value Source: NWS Daily Summary

Daily Weather History Graph

Daily Weather History Graph

Search for Another Location

Airport or City:

Trip Planner

Search our weather history database for the weather conditions in past years. The results will help you decide how hot, cold, wet, or windy it might be!

Date:

Astronomy

Dec. 11, 2013 Rise Set
Actual Time 7:20 AM CST 5:22 PM CST
Civil Twilight 6:53 AM CST 5:49 PM CST
Nautical Twilight 6:22 AM CST 6:20 PM CST
Astronomical Twilight 5:52 AM CST 6:50 PM CST
Moon 1:44 PM CST (12/11) 1:57 AM CST (12/11)
Length of Visible Light 10h 56m
Length of Day
10h 02m
Waxing Gibbous, 72% of the Moon is Illuminated
Dec 11
Waxing Gibbous
Dec 17
Full
Dec 25
Last Quarter
Jan 1
New
Jan 7
First Quarter

Hourly Weather History & Observations

Time (CST) Temp. Windchill Dew Point Humidity Pressure Visibility Wind Dir Wind Speed Gust Speed Precip Events Conditions
12:15 AM 30.2 °F - 26.6 °F 86% 30.37 in 10.0 mi Calm Calm - N/A   Clear
12:35 AM 30.2 °F - 24.8 °F 80% 30.37 in 10.0 mi Calm Calm - N/A   Clear
12:55 AM 30.2 °F 26.7 °F 24.8 °F 80% 30.36 in 10.0 mi WSW 3.5 mph - N/A   Clear
1:15 AM 30.2 °F 26.7 °F 24.8 °F 80% 30.35 in 10.0 mi SW 3.5 mph - N/A   Clear
1:35 AM 30.2 °F - 24.8 °F 80% 30.35 in 10.0 mi Calm Calm - N/A   Clear
1:55 AM 30.2 °F 26.7 °F 24.8 °F 80% 30.35 in 10.0 mi SSW 3.5 mph - N/A   Clear
2:15 AM 30.2 °F 26.7 °F 24.8 °F 80% 30.35 in 10.0 mi SSW 3.5 mph - N/A   Clear
2:35 AM 30.2 °F 24.3 °F 24.8 °F 80% 30.35 in 10.0 mi South 5.8 mph - N/A   Clear
2:55 AM 30.2 °F 25.4 °F 24.8 °F 80% 30.34 in 10.0 mi South 4.6 mph - N/A   Clear
3:15 AM 30.2 °F - 24.8 °F 80% 30.34 in 10.0 mi Calm Calm - N/A   Clear
3:35 AM 30.2 °F - 24.8 °F 80% 30.34 in 10.0 mi Calm Calm - N/A   Clear
3:55 AM 28.4 °F - 24.8 °F 86% 30.34 in 10.0 mi Calm Calm - N/A   Clear
4:15 AM 30.2 °F - 24.8 °F 80% 30.35 in 10.0 mi Calm Calm - N/A   Clear
4:35 AM 30.2 °F - 23.0 °F 75% 30.36 in 10.0 mi Calm Calm - N/A   Clear
4:55 AM 28.4 °F - 23.0 °F 80% 30.34 in 10.0 mi Calm Calm - N/A   Clear
5:15 AM 28.4 °F - 24.8 °F 86% 30.37 in 10.0 mi Calm Calm - N/A   Clear
5:35 AM 30.2 °F 26.7 °F 23.0 °F 75% 30.37 in 10.0 mi West 3.5 mph - N/A   Clear
5:55 AM 30.2 °F - 23.0 °F 75% 30.38 in 10.0 mi Calm Calm - N/A   Clear
7:50 AM 26.6 °F - 23.0 °F 86% 30.40 in 10.0 mi Calm Calm - N/A   Clear
8:50 AM 30.2 °F - 26.6 °F 86% 30.44 in 10.0 mi Calm Calm - N/A   Clear
9:50 AM 35.6 °F - 28.4 °F 75% 30.46 in 10.0 mi Calm Calm - N/A   Clear
10:55 AM 39.2 °F - 26.6 °F 61% 30.47 in 10.0 mi Calm Calm - N/A   Clear
11:50 AM 42.8 °F - 26.6 °F 53% 30.46 in 10.0 mi Calm Calm - N/A   Clear
12:50 PM 44.6 °F - 26.6 °F 49% 30.45 in 10.0 mi Calm Calm - N/A   Clear
1:50 PM 44.6 °F 39.7 °F 28.4 °F 53% 30.44 in 10.0 mi North 9.2 mph - N/A   Clear
2:50 PM 44.6 °F 39.7 °F 28.4 °F 53% 30.47 in 10.0 mi North 9.2 mph - N/A   Clear
3:50 PM 42.8 °F 37.5 °F 28.4 °F 57% 30.49 in 10.0 mi North 9.2 mph - N/A   Clear
5:50 PM 37.4 °F 31.4 °F 26.6 °F 65% 30.53 in 10.0 mi North 8.1 mph - N/A   Clear
8:15 PM 35.6 °F 32.8 °F 28.4 °F 75% 30.58 in 10.0 mi North 3.5 mph - N/A   Clear
8:35 PM 35.6 °F - 28.4 °F 75% 30.58 in 10.0 mi Calm Calm - N/A   Clear
8:55 PM 35.6 °F - 28.4 °F 75% 30.59 in 10.0 mi Calm Calm - N/A   Clear
9:15 PM 33.8 °F - 28.4 °F 81% 30.59 in 10.0 mi Calm Calm - N/A   Clear
9:35 PM 33.8 °F 30.8 °F 28.4 °F 81% 30.59 in 10.0 mi North 3.5 mph - N/A   Clear
9:55 PM 33.8 °F 29.6 °F 28.4 °F 81% 30.60 in 10.0 mi North 4.6 mph - N/A   Clear
10:15 PM 35.6 °F 29.2 °F 28.4 °F 75% 30.61 in 10.0 mi North 8.1 mph - N/A   Clear
10:35 PM 33.8 °F 27.7 °F 28.4 °F 81% 30.62 in 10.0 mi North 6.9 mph - N/A   Clear
10:55 PM 33.8 °F 27.0 °F 28.4 °F 81% 30.61 in 10.0 mi North 8.1 mph - N/A   Clear
11:15 PM 33.8 °F 27.0 °F 26.6 °F 75% 30.62 in 10.0 mi North 8.1 mph - N/A   Clear
11:35 PM 33.8 °F 27.7 °F 26.6 °F 75% 30.62 in 10.0 mi North 6.9 mph - N/A   Clear
11:55 PM 33.8 °F 27.7 °F 26.6 °F 75% 30.62 in 10.0 mi North 6.9 mph - N/A   Clear